www.pogodaiklimat.ru
ПОГОДА в Лизбурге
Время
и дата
06:35 15.07
06:55 15.07
07:15 15.07
07:35 15.07
07:55 15.07
08:15 15.07
08:35 15.07
08:55 15.07
09:15 15.07
09:35 15.07
09:55 15.07
10:15 15.07
10:35 15.07
10:55 15.07
11:15 15.07
11:35 15.07
11:55 15.07
12:15 15.07
12:35 15.07
12:55 15.07
13:15 15.07
13:35 15.07
13:55 15.07
14:15 15.07
14:35 15.07
14:55 15.07
15:15 15.07
15:35 15.07
15:55 15.07
16:15 15.07
16:35 15.07
16:55 15.07
17:15 15.07
17:35 15.07
17:55 15.07
18:15 15.07
18:35 15.07
18:55 15.07
19:15 15.07
19:35 15.07
19:55 15.07
20:15 15.07
20:35 15.07
20:55 15.07
21:15 15.07
21:35 15.07
21:55 15.07
22:15 15.07
Ветер
(напр.,м/с)
Видим. Явления Облачность Т
(С)
Тd
(С)
f
(%)
Тe
(С)
Тes
(С)
Комфортность P
(гПа)
Po
(гПа)
Тmin
(С)
Tmax
(С)
R
(мм)
R24
(мм)
S
(см)
штиль 0 16 км ясно +28.0 +20.0 62 +34 +35 очень
душно
1000.9
СЗ 2 16 км ясно +28.0 +20.0 62 +34 +35 очень
душно
1000.9
З 2 16 км ясно +28.0 +20.0 62 +34 +38 очень
душно
1000.9
штиль 0 16 км ясно +30.0 +21.0 59 +38 +42 очень
душно
1001.5
СЗ 5 16 км ясно +30.0 +21.0 59 +38 +39 очень
душно
1001.5
СЗ 6 16 км ясно +31.0 +21.0 55 +38 +41 очень
душно
1001.5
СЗ 3 16 км ясно +31.0 +21.0 55 +38 +44 очень
душно
1001.2
С 4 16 км ясно +32.0 +21.0 52 +39 +44 очень
душно
1001.2
З 4 16 км ясно +33.0 +22.0 52 +41 +49 опасность
перегрева
1000.9
СЗ 6
{9}
16 км ясно +33.0 +22.0 52 +41 +46 опасность
перегрева
1000.9
СЗ 6
{9}
16 км ясно +33.0 +22.0 52 +41 +46 опасность
перегрева
1000.5
СЗ 4
{8}
16 км ясно +33.0 +22.0 52 +41 +52 опасность
перегрева
1000.5
СЗ 5
{9}
16 км ясно +34.0 +22.0 50 +43 +51 опасность
перегрева
1000.2
СЗ 6
{8}
16 км 5/0 3600 m
[Ac]
+35.0 +22.0 47 +44 +48 опасность
перегрева
1000.2
СЗ 5 16 км 5/0 3600 m
[Ac]
+35.0 +22.0 47 +44 +50 опасность
перегрева
999.9
штиль 0 16 км ясно +35.0 +22.0 47 +44 +69 опасность
перегрева
999.5
СЗ 2 16 км 5/5 1800 м +35.0 +22.0 47 +44 +53 опасность
перегрева
999.5
Ю 3 16 км 5/5 1800 м +36.0 +22.0 44 +44 +53 опасность
перегрева
999.2
С 2 16 км 8/0 2100 m
[Ac]
+35.0 +21.0 44 +42 +51 опасность
перегрева
999.2
С 3 16 км 8/0 2100 m
[Ac]
+36.0 +21.0 42 +43 +51 опасность
перегрева
998.5
СЗ 5
{8}
16 км 5/0 2100 m
[Ac]
+37.0 +21.0 40 +44 +51 опасность
перегрева
998.5
З 3 16 км 5/0 2100 m
[Ac]
+37.0 +21.0 40 +44 +55 опасность
перегрева
998.2
ЮЗ 4 16 км 8/0 2400 m
[Ac]
+38.0 +21.0 37 +44 +50 опасность
перегрева
998.2
ЮЗ 5 16 км 5/0 2400 m
[Ac]
+38.0 +22.0 40 +46 +52 опасность
перегрева
997.9
ЮЗ 2 16 км 5/0 3300 m
[Ac]
+36.0 +21.0 42 +43 +54 опасность
перегрева
997.5
ЮЗ 6
{7}
16 км 8/5 1800 m
[Ac]
+36.0 +22.0 44 +44 +46 опасность
перегрева
997.2
ЮЗ 4 16 км 8/5 1410 m
[Ac]
+36.0 +22.0 44 +44 +47 опасность
перегрева
996.9
ЮЗ 4 16 км гроза 8/5 1800 m
[Ac Cb]
+36.0 +22.0 44
С 9
{14}
16 км гроза с дождем 8/8 1950 m
[Ac Cb]
+27.0 +21.0 70 +34 +34 очень
душно
998.2
В 6
{9}
4 км гроза с дождем 10/10 360 m
[Cb]
+24.0 +23.0 94
ЮВ 5 16 км гроза 5/5 960 m
[Cb]
+25.0 +22.0 83 +32 +34 очень
душно
997.5
ЮВ 3
{8}
16 км ясно +26.0 +22.0 79 +34 +41 очень
душно
997.5
Ю 2 16 км ясно +27.0 +22.0 74 +35 +39 очень
душно
997.5
Ю 4 16 км ясно +28.0 +23.0 74 +37 +40 очень
душно
997.5
Ю 4 16 км ясно +30.0 +22.0 62 +39 +42 очень
душно
996.9
Ю 3 16 км ясно +30.0 +22.0 62 +39 +40 очень
душно
996.5
ЮЗ 3 16 км ясно +29.0 +22.0 66 +37 +39 очень
душно
996.9
ЮЗ 2 16 км ясно +30.0 +22.0 62 +39 +40 очень
душно
996.9
ЮЗ 2 16 км 5/0 3600 m
[Ac]
+30.0 +22.0 62 +39 +39 очень
душно
996.9
ЮЗ 4 16 км ясно +28.0 +21.0 66 +35 +35 очень
душно
997.2
ЮЗ 3 16 км ясно +28.0 +21.0 66 +35 +35 очень
душно
997.2
З 2 16 км ясно +27.0 +22.0 74 +35 +35 очень
душно
997.5
ЮЗ 2 16 км ясно +27.0 +21.0 70 +34 +34 очень
душно
997.5
ЮЗ 2 16 км ясно +26.0 +21.0 74 +33 +33 очень
душно
997.5
ЮЗ 2 16 км ясно +26.0 +21.0 74 +33 +33 очень
душно
997.5
ЮЗ 2 16 км ясно +26.0 +22.0 79 +34 +34 очень
душно
997.5
ЮЗ 3 16 км ясно +26.0 +22.0 79 +34 +34 очень
душно
997.5
ЮЗ 2 16 км ясно +26.0 +22.0 79 +34 +34 очень
душно
997.2
Местоположение метеостанции Leesburg Executive Airport: широта 39.0833 долгота -77.5667 высота над уровнем моря 119 м.
В архиве по умолчанию представлена погода в Лизбурге за последние 1-2 суток. Обновление информации о фактической погоде в базе происходит ежечасно! Архивные данные за месяц целиком и за предыдущие месяцы Вы можете получить, выбрав интересующий диапазон дат из раскрывающегося списка и нажав кнопку "Ввод!".
Внимание! Архив погоды МЕТАР в базе сайта по станциям, не включенным в климатический монитор, хранится не более 60 дней. Нет смысла пытаться выбрать более раннюю дату.
*Определитесь, кто Вы:
Внимание! Время в таблицах - местное (без учета летнего времени). Для получения всемирного времени необходимо вычесть поправку, которая равна -5 ч.
Смотрите также архив погоды в соседних городах и на ближайших метеорологических станциях:
Партнеры нашего сайта:      
Пояснения к столбцам:
  • Ветер - указаны скорость ветра в м/с - средняя за 10 мин, порывы в срок и между сроками (в фигурных скобках) и направление, откуда дует ветер: С - северный,
  • СВ - северо-восточный, В - восточный, ЮВ - юго-восточный, Ю - южный, ЮЗ - юго-западный, З - западный, СЗ - северо-западный.
  • Видимость - горизонтальная дальность видимости в метрах или километрах. При видимости от 1 до 10 км при отсутствии осадков обычно наблюдается дымка, при ухудшении видимости до 1 км и менее - туман. В сухую погоду видимость может ухудшаться дымом, пылью или мглою.
  • Явления - указаны атмосферные явления, наблюдавшиеся в срок или в последний час перед сроком; фигурными скобками обозначены явления, наблюдавшиеся между сроками (за 1-3 часа до срока); квадратными скобками обозначены град или гололедные отложения с указанием их диаметра в мм.
  • Облачность - указаны через наклонную черту общая и нижняя облачность в баллах и высота нижней границы облаков в метрах; квадратными скобками обозначены формы облаков: Ci - перистые, Cs - перисто-слоистые, Cc - перисто-кучевые, Ac - высококучевые, As - высокослоистые, Sc - слоисто-кучевые, Ns - слоисто-дождевые, Cu - кучевые, Cb - кучево-дождевые. Подробнее классификацию облаков см. в Атласе облаков (PDF).
  • T - Температура воздуха - температура, измеренная на высоте 2 м над землей.
  • Td - Температура точки росы - температура, при понижении до которой содержащийся в воздухе водяной пар достигнет насыщения.
  • f - Относительная влажность воздуха - влажноcть воздуха, измеренная на высоте 2 м над землей.
  • Te - Эффективная температура - температура, которую ощущает одетый по сезону человек в тени. Характеристика душности погоды. При расчете учитывается влияние влажности воздуха и скорости ветра на теплоощущения человека.
  • Tes - Эффективная температура на солнце - температура, которую ощущает человек, с поправкой на солнечный нагрев. Характеристика знойности погоды. Зависит от высоты солнца над горизонтом, облачности и скорости ветра. Ночью, в пасмурную погоду, а также при ветре 12 м/с и более поправка равна нулю.
  • P - Атмосферное давление - приведенное к уровню моря атмосферное давление.
  • Po - Атмосферное давление - измеренное на уровне метеостанции атмосферное давление.
  • Tmin - Минимальная температура - минимум температуры воздуха на высоте 2 м над землей.
  • Tmax - Максимальная температура - максимум температуры воздуха на высоте 2 м над землей.
  • R - Количество осадков - Количество выпавших осадков за период времени, мм. При наведении курсора мыши на число - период времени, за который выпало указанное количество осадков.
  • R24 - Количество осадков - Количество выпавших осадков за 24 часа, мм.
  • S - Снежный покров - Высота снежного покрова, см. При наведении курсора мыши на число - состояние снежного покрова и степень покрытия местности в баллах.